Mission

  • Our mission is to promote and protect San Carlos Airport and its flight operations, and to enhance the safety and spirit of general aviation through participation in local community activities.

Background

  • The San Carlos Airport Association (SCAA) has represented pilots and friends of the Airport since our founding in 1986.

Noise Abatement Procedures

  • San Carlos Airport is surrounded by noise sensitive neighborhoods. All pilots are encouraged to follow the noise abatement procedures

Live View of San Carlos Airport (SQL)

San Carlos METAR

  • KSQL 221650Z 00000KT 10SM FEW008 FEW040 16/13 A3038

    A METAR describes the current weather at an airport. Click here to learn how to read a METAR.


SQL Notams

  • Click here and enter KSQL in the Locations box to read the Notices to Airmen (Notams) about San Carlos Airport.

ASOS from Half Moon Bay Airport (HAF)

Chapter

Contact

  • Email: webmaster at sancarlosairport.org
  • twitter
  • Our mailing address:
    San Carlos Airport Association
    P.O. Box 1183
    San Carlos, CA 94070
 

School of Rock at Airport Day 1PM Sat. 9/30/17


from the Airport’s facebook page 


You wanted the best? You got the best! School of Rock San Mateo takes the stage this Airport Day! September 30th at 1 PM! #SanCarlosAirportDay2017